Weather History for KHPN - October, 2011

Change the Weather History Date:

Thursday, October 27, 2011

  Actual Average Record
Temperature  
Mean Temperature 46 °F -  
Max Temperature 55 °F 56 °F 72 °F (1989)
Min Temperature 35 °F 40 °F 26 °F (1976)
Degree Days  
Heating Degree Days 19    
Moisture  
Dew Point 44 °F    
Average Humidity 90    
Maximum Humidity 93    
Minimum Humidity 83    
Precipitation  
Precipitation 0.61 in - - ()
Sea Level Pressure  
Sea Level Pressure 29.69 in    
Wind  
Wind Speed 5 mph (North)    
Max Wind Speed 20 mph    
Max Gust Speed 26 mph    
Visibility 4 miles    
Events Rain    
Averages and records for this station are not official NWS values.
T = Trace of Precipitation, MM = Missing Value Source: NWS Daily Summary

Daily Weather History Graph

Daily Weather History Graph

Search for Another Location

Airport or City:

Trip Planner

Search our weather history database for the weather conditions in past years. The results will help you decide how hot, cold, wet, or windy it might be!

Date:

Astronomy

Oct. 27, 2011 Rise Set
Actual Time 7:19 AM EDT 5:57 PM EDT
Civil Twilight 6:51 AM EDT 6:25 PM EDT
Nautical Twilight 6:18 AM EDT 6:57 PM EDT
Astronomical Twilight 5:47 AM EDT 7:29 PM EDT
Moon 8:20 AM EDT (10/27) 6:23 PM EDT (10/27)
Length of Visible Light 11h 34m
Length of Day
10h 37m
New Moon, 1% of the Moon is Illuminated
Oct 27
New Moon
Nov 2
First Quarter
Nov 10
Full
Nov 18
Last Quarter
Nov 25
New

Hourly Weather History & Observations

Time (EDT) Temp. Windchill Dew Point Humidity Pressure Visibility Wind Dir Wind Speed Gust Speed Precip Events Conditions
12:56 AM 55.0 °F - 50.0 °F 83% 29.71 in 10.0 mi Calm Calm - N/A   Mostly Cloudy
1:56 AM 55.4 °F - 51.8 °F 88% 29.69 in 10.0 mi Calm Calm - N/A   Overcast
2:56 AM 54.0 °F - 51.1 °F 90% 29.67 in 10.0 mi Calm Calm - N/A   Overcast
3:56 AM 54.0 °F - 51.1 °F 90% 29.67 in 10.0 mi Calm Calm - 0.00 in Rain Light Rain
4:56 AM 55.0 °F - 53.1 °F 93% 29.65 in 4.0 mi Calm Calm - 0.07 in Rain Rain
5:56 AM 55.0 °F - 53.1 °F 93% 29.66 in 5.0 mi Calm Calm - 0.04 in   Overcast
6:56 AM 55.0 °F - 53.1 °F 93% 29.66 in 2.5 mi NW 6.9 mph - 0.02 in Rain Light Rain
7:56 AM 51.1 °F - 48.0 °F 89% 29.67 in 2.5 mi North 9.2 mph - 0.01 in Rain Light Rain
8:56 AM 50.0 °F - 48.0 °F 93% 29.69 in 2.0 mi North 4.6 mph - 0.03 in Rain Light Rain
9:56 AM 48.2 °F - 46.4 °F 93% 29.69 in 3.0 mi NNE 5.8 mph - N/A Rain Light Rain
10:56 AM 48.2 °F - 44.6 °F 87% 29.68 in 2.0 mi NE 6.9 mph - N/A Rain Light Rain
11:56 AM 46.4 °F 42.9 °F 44.6 °F 93% 29.66 in 2.0 mi NNE 6.9 mph - N/A Rain Light Rain
12:56 PM 46.4 °F 43.5 °F 42.8 °F 87% 29.63 in 2.0 mi NNE 5.8 mph - N/A Rain Light Rain
1:56 PM 45.0 °F 39.7 °F 43.0 °F 93% 29.65 in 2.0 mi North 10.4 mph - 0.08 in Rain Light Rain
2:56 PM 45.0 °F 40.1 °F 42.1 °F 90% 29.62 in 2.0 mi NNE 9.2 mph - 0.03 in Rain Light Rain
3:08 PM 44.6 °F 40.2 °F 42.8 °F 93% 29.62 in 7.0 mi NNE 8.1 mph - 0.00 in Rain Light Rain
3:29 PM 44.6 °F 39.7 °F 42.8 °F 93% 29.61 in 2.5 mi NE 9.2 mph - 0.04 in Rain Rain
3:56 PM 44.1 °F 40.1 °F 42.1 °F 93% 29.61 in 3.0 mi NNE 6.9 mph - 0.09 in Rain Light Rain
4:29 PM 44.6 °F 40.7 °F 42.8 °F 93% 29.61 in 1.5 mi North 6.9 mph - 0.03 in Rain Light Rain
4:56 PM 44.1 °F 40.8 °F 41.0 °F 89% 29.61 in 1.5 mi NNE 5.8 mph - 0.06 in Rain Light Rain
5:56 PM 43.0 °F 36.0 °F 41.0 °F 93% 29.67 in 1.2 mi NNW 13.8 mph - 0.04 in Rain Light Rain
6:14 PM 42.8 °F 34.3 °F 41.0 °F 93% 29.67 in 2.0 mi North 19.6 mph 24.2 mph 0.03 in Rain Light Rain
6:56 PM 39.0 °F 30.6 °F 36.0 °F 89% 29.71 in 2.0 mi North 15.0 mph 21.9 mph 0.10 in Rain Light Rain
7:56 PM 37.9 °F 30.5 °F 35.1 °F 89% 29.76 in 5.0 mi North 11.5 mph - 0.04 in Rain Light Rain
8:56 PM 37.9 °F 29.2 °F 35.1 °F 89% 29.81 in 5.0 mi NNW 15.0 mph - 0.00 in Rain Light Rain
9:56 PM 37.4 °F 27.8 °F 33.8 °F 87% 29.86 in 5.0 mi NNW 17.3 mph 23.0 mph N/A   Drizzle
10:56 PM 37.0 °F 28.1 °F 33.1 °F 86% 29.91 in 5.0 mi NNW 15.0 mph 24.2 mph 0.00 in   Drizzle
11:56 PM 35.6 °F 25.9 °F 32.0 °F 87% 29.92 in 10.0 mi NNW 16.1 mph 26.5 mph N/A   Drizzle